Regional Weather Roundup
Issued by NWS Bismarck, ND

Home | Current Version | Previous Version | Text Only | Print | Product List | Glossary On
Versions: 1 2 3 4 5 6 7 8 9 10 11 12 13 14 15 16 17 18 19 20 21 22 23 24 25 26 27 28 29 30 31 32 33 34 35 36 37 38 39 40 41 42 43 44 45 46 47 48 49 50
000
ASUS43 KBIS 210220
RWRBIS

NWR BROADCAST TEXT
NATIONAL WEATHER SERVICE BISMARCK ND
900 PM CDT SAT SEP 20 2014

NOTE: "FAIR" INDICATES FEW OR NO CLOUDS BELOW 12,000 FEET WITH NO
SIGNIFICANT WEATHER AND/OR OBSTRUCTIONS TO VISIBILITY.


CITY           SKY/WX    TMP DP  RH WIND       PRES   REMARKS
WILLISTON      CLEAR     57  36  45 NW8       30.14R
MINOT          CLEAR     57  41  55 NW12      30.04R
MINOT AFB      CLEAR     57  43  59 NW12      30.04R
BISMARCK       CLEAR     63  40  42 NW8       30.07R
DICKINSON      CLEAR     52  36  54 NW8       30.14R
GARRISON         N/A     58  40  51 NW10      30.07R
HETTINGER ARPT CLEAR     52  36  54 NW10      30.16R
JAMESTOWN      CLEAR     59  42  53 NW15      29.97R
BEACH            N/A     50  34  53 NW9       30.20R
CARRINGTON     CLOUDY    61  45  55 NW13G18   30.00R
CROSBY         FAIR      57  39  51 NW12      30.12R
HARVEY         MOCLDY    59  45  58 NW15G21   30.01R
HAZEN          FAIR      54  39  58 W5        30.11R
LINTON         FAIR      54  41  62 NW6       30.07R
OAKES            N/A     55  46  71 W10       29.97R
RUGBY          MOCLDY    59  46  63 NW12      30.00S
STANLEY        FAIR      55  39  54 W9        30.10R
TIOGA          FAIR      57  39  51 NW12      30.14R
WATFORD CITY   FAIR      57  36  44 NW8       30.13R
$$

CITY           SKY/WX    TMP DP  RH WIND       PRES   REMARKS
GRAND FORKS    MOCLDY    53  50  89 NW5       29.90R
GRAND FORKS AF MOCLDY    53  52  99 NW5       29.92R
DEVILS LAKE    CLOUDY    61  45  55 NW15      29.96R
FARGO          CLOUDY    60  49  66 NW10      29.89R
CANDO          CLOUDY    59  45  58 NW16G22   29.98R
CAVALIER       LGT RAIN  54  52  94 NW7       29.93R
GRAFTON        LGT RAIN  55  54  94 NW9       29.91S
GWINNER        CLEAR     55  45  67 W9        29.96R
LANGDON        MOCLDY    54  48  82 N5        29.95R
ROLLA          CLOUDY    57  45  62 NW18G25   30.00R
WALHALLA       LGT RAIN  54  54 100 NW7       29.93R
$$

CITY           SKY/WX    TMP DP  RH WIND       PRES   REMARKS
ABERDEEN       CLEAR     62  44  51 W12       30.01R
MOBRIDGE       PTCLDY    55  46  71 NW7       30.06R
BUFFALO          N/A     63  35  35 NW17      30.14R
RAPID CITY     CLEAR     56  41  57 N8        30.22R
GLASGOW        CLEAR     60  35  39 N5        30.19R
SIDNEY         CLEAR     57  36  44 NW10      30.18R
WOLF POINT     CLEAR     55  37  50 NW5       30.18R
MILES CITY     CLEAR     61  39  44 N8        30.21R
BAKER          CLEAR     61  35  37 NW12      30.21R
$$

CITY           SKY/WX    TMP DP  RH WIND       PRES   REMARKS
BILLINGS       CLEAR     66  43  43 E8        30.24R
GREAT FALLS    CLEAR     63  41  44 E12       30.22R
REGINA         PTCLDY    55  43  62 W10       30.10R
$$



USA.gov is the U.S. government's official web portal to all federal, state and local government web resources and services.